Regional Weather Roundup
Issued by NWS Newport/Morehead, NC

Current Version | Previous Version | Text Only | Print | Product List | Glossary On
Versions: 1 2 3 4 5 6 7 8 9 10 11 12 13 14 15 16 17 18 19 20 21 22 23 24 25 26 27 28 29 30 31 32 33 34 35 36 37 38 39 40 41 42 43 44 45 46 47 48 49 50
000
ASUS42 KMHX 210022
RWRMHX
WEATHER ROUNDUP FOR EASTERN NORTH CAROLINA
NATIONAL WEATHER SERVICE NEWPORT/MOREHEAD CITY NC
800 PM EDT WED AUG 20 2014

NOTE: "FAIR" INDICATES FEW OR NO CLOUDS BELOW 12,000 FEET
WITH NO SIGNIFICANT WEATHER AND/OR OBSTRUCTIONS TO VISIBILITY

NCZ015>017-031-032-045>047-102-103-210100-
NORTH COAST

CITY           SKY/WX    TMP DP  RH WIND       PRES   REMARKS
EDENTON        MOCLDY    78  73  83 E5        29.97S
ELIZABETH CITY CLEAR     77  71  82 E7        29.98S
KITTY HAWK     PTCLDY    77  71  82 E3        29.97S
MANTEO         PTCLDY    77  72  83 NE3       29.98S

$$

NCZ045>047-081-094-103-104-210100-
CENTRAL COAST

CITY           SKY/WX    TMP DP  RH WIND       PRES   REMARKS
FRISCO         MOCLDY    77  73  87 E3        29.98S
SWANQUARTER      N/A     77 N/A N/A E3        29.94S

$$

NCZ095-097-098-100-101-210100-
SOUTHERN COAST

CITY           SKY/WX    TMP DP  RH WIND       PRES   REMARKS
BEAUFORT       MOCLDY    81  75  82 SW6       29.98R
CEDAR ISLAND     N/A     79 N/A N/A S7        30.03R
JACKSONVILLE   CLEAR     81  76  84 CALM      29.97R
NEWPORT        NOT AVBL
PINEY ISLAND   NOT AVBL
WILMINGTON     PTCLDY    81  76  84 SW3       29.97S


$$

NCZ011>013-027>030-043-044-078>080-089-090>093-098-210100-
COASTAL PLAIN

CITY           SKY/WX    TMP DP  RH WIND       PRES   REMARKS
AHOSKIE        PTCLDY    77  74  91 CALM      29.96S
CLINTON        CLEAR     79  73  83 CALM      29.98R
ELIZABETHTOWN  CLEAR     82  75  78 CALM      29.97S
GOLDSBORO      MOCLDY    83  79  88 S3        29.95R
GREENVILLE     CLEAR     81  75  83 CALM      29.98S
HAVELOCK       NOT AVBL
KENANSVILLE    CLEAR     79  74  84 CALM      29.98R
KINSTON        CLEAR     81  73  78 S5        29.97R
NEW BERN       PTCLDY    81  75  82 SW5       29.98S
RICHLANDS      CLEAR     79  72  78 CALM      29.98R
ROANOKE RAPIDS NOT AVBL
ROCKY MOUNT    MOCLDY    79  75  87 CALM      29.96S
WASHINGTON     CLEAR     80  74  81 CALM      29.97R
WHITEVILLE     CLEAR     81  74  78 CALM      29.97R

$$

AMZ130-135-150-152-154-156-158-170-250-252-270-ANZ085-086-088-633-658-670-210100-
MARINE OBSERVATIONS

STATION/POSITION TIME  TEMP    WIND        PRES    WAVE   SWELL
                       AIR SEA DIR/SP/G            HT/PER HT/PER
                 (UTC) (F)     (DEG/KT/KT) (MB)    (FT/S) (FT/S)
CHESAPEAKE LIGHT 0000   76      70/ 11/ 12 1016.1
BUOY 44014       0000   77 78   50/  6/  6 1015.1    3/ 7   2/ 7
DUCK             0000   77 79   80/  6/  7 1014.6
2E DUCK          0000                        N/A     2/ 5
OREGON INLET     0000   78 83   60/  4/  7 1015.1
BUOY 44095       0000      80                N/A     3/ 6
20E OREGON INLET NOT AVBL
HATTERAS CG      0000   79 83  100/  5/  6 1015.7
DIAMOND BUOY     0000   77     310/  4/  6 1015.3    2/ 7   2/ 7
CAPE LOOKOUT     0000   81     230/  4/  5 1015.1
BEAUFORT LAB     0000   81 82  240/  3/  5 1014.8
30 SE NEW RIVER  0000   82 83  220/  6/  6 1014.6    3/ 6   3/ 6
5 SE WRIGHTSVILL 0000   78 83  220/  4/  6   N/A
BUOY 41002       NOT AVBL
BUOY 41004       0000   83 84  220/ 14/ 16 1014.1    3/ 5   2/11

$$



USA.gov is the U.S. government's official web portal to all federal, state and local government web resources and services.